Wind_Speed
33 30 27 25 21 22 25 27 27 27 25 23 20 18 15 15 14 11 8 5 2 3 7 9 11 13 15 17 20 21 21 22 25 26 23 21 15 15 21 21 17 18 20
34 32 29 25 22 22 24 25 29 26 25 22 21 15 17 17 13 9 4 1 5 8 11 13 15 16 17 19 20 21 23 24 25 25 23 17 23 14 13 28 22 22 24
32 35 32 28 25 23 23 27 31 28 28 25 24 21 20 17 11 6 2 4 6 9 11 14 15 15 15 16 16 17 17 18 18 17 15 15 15 26 16 20 21 24 35
37 38 35 32 29 25 24 26 31 32 30 26 23 21 21 16 10 5 4 5 8 10 10 12 13 15 16 16 15 15 15 17 19 20 16 15 19 16 26 16 24 22 21
40 44 41 36 30 26 29 31 33 32 29 26 23 22 18 12 7 3 3 5 7 9 11 12 12 14 15 14 15 16 15 15 17 19 20 20 20 17 20 36 28 29 24
36 43 41 35 32 31 33 35 35 32 29 26 21 16 13 8 4 1 2 3 6 8 9 10 12 11 11 12 11 12 13 14 15 16 17 20 20 19 19 24 32 34 34
36 43 45 42 41 41 40 37 36 34 29 24 20 14 8 3 1 2 3 5 6 7 10 11 11 11 13 14 15 16 17 17 18 18 21 23 24 26 27 24 26 29 39
36 47 49 46 46 44 42 39 37 34 28 22 17 12 7 2 2 3 5 6 9 11 11 13 15 17 18 19 19 20 22 22 24 25 26 28 29 28 27 26 23 28 29
33 41 47 49 47 45 42 39 35 30 26 20 14 10 5 2 1 2 4 6 9 11 14 17 19 20 21 22 23 24 25 25 25 26 27 28 29 32 30 28 26 24 27
29 34 44 49 46 44 40 36 32 29 23 18 14 9 4 3 2 2 6 9 12 15 17 18 19 20 22 23 23 23 24 25 25 27 27 27 28 30 31 28 29 27 25
32 37 44 49 47 43 40 36 32 28 23 18 13 9 6 5 4 6 10 12 13 16 18 19 21 22 24 25 26 27 27 27 27 26 28 29 28 30 28 26 26 26 25
28 32 38 51 47 44 41 38 33 27 22 18 14 11 8 6 6 9 11 13 16 18 20 21 22 23 24 25 24 24 23 23 24 25 25 25 25 24 26 27 29 27 24
26 30 41 51 49 46 42 38 32 27 23 19 15 11 8 7 8 10 13 15 17 19 20 20 22 23 21 19 18 19 21 22 23 23 24 26 28 29 28 27 25 29 30
30 34 44 52 50 47 43 38 33 28 24 19 14 10 8 8 10 13 15 16 17 18 19 19 19 18 16 16 18 19 20 21 22 22 23 25 28 30 33 35 35 34 37
30 39 50 55 52 47 42 37 32 27 22 18 13 10 8 10 13 14 14 15 16 17 17 16 13 13 15 16 18 19 20 22 23 24 24 25 27 31 32 35 35 33 33
35 44 48 54 54 49 44 38 32 27 21 16 12 8 8 12 13 12 13 14 14 14 12 11 11 12 13 16 17 20 23 24 26 28 29 30 31 31 31 32 30 28 29
45 48 57 59 56 50 44 38 32 26 21 14 9 7 10 10 12 12 11 12 11 9 9 10 12 12 16 20 23 24 23 24 26 28 30 33 32 31 28 29 29 29 28
39 42 48 50 53 46 42 37 32 24 17 10 8 7 10 13 11 9 10 11 10 10 11 11 11 14 17 21 24 26 26 26 28 28 29 30 31 29 30 30 29 28 28
47 49 52 55 53 48 42 36 28 20 12 8 6 9 14 12 10 9 9 10 10 10 11 12 14 16 18 21 25 26 27 28 29 30 31 31 31 29 26 29 27 29 28
42 47 51 54 50 45 39 33 25 16 8 6 11 13 11 11 11 9 9 10 11 11 13 14 16 16 17 21 23 24 26 28 31 35 35 34 32 28 24 23 25 29 26
43 45 49 53 48 41 34 27 17 10 7 12 13 10 10 9 8 8 8 8 8 9 10 12 14 15 17 20 22 23 26 29 34 36 37 35 32 26 21 19 22 23 22
47 48 52 51 44 38 30 22 15 8 12 13 11 9 6 4 3 2 1 3 6 8 11 15 17 19 21 21 22 24 26 27 33 36 36 34 29 22 17 17 16 15 17
46 49 53 48 39 29 21 19 12 12 16 13 10 8 7 6 5 5 5 5 7 11 15 18 22 26 28 28 26 25 27 29 32 32 32 30 24 17 15 14 13 15 19
49 52 51 43 34 25 18 15 14 17 16 13 12 11 9 8 7 5 4 5 9 13 15 20 23 27 29 30 29 30 30 30 31 32 31 26 20 15 15 13 14 17 18
51 50 44 33 25 22 20 18 19 18 17 16 14 12 9 7 4 1 3 7 10 14 18 21 24 27 30 30 27 27 29 30 30 32 30 25 21 18 15 15 15 16 13
49 41 30 24 24 22 21 22 21 21 19 17 14 11 9 7 4 3 5 8 9 12 15 18 21 24 26 30 27 25 25 26 27 27 25 22 19 18 17 15 14 12 11
Wind_Direction
215 212 211 208 206 200 206 204 203 192 188 181 180 185 194 186 186 180 181 181 218 325 337 332 328 325 322 320 319 316 315 317 320 325 318 318 318 300 299 289 301 296 290
213 210 212 211 212 208 205 203 201 198 197 190 187 203 200 174 177 169 168 351 340 328 324 326 326 324 324 321 316 316 318 318 320 325 324 321 311 299 297 298 296 296 301
205 207 209 210 213 213 201 198 192 197 192 189 186 184 180 175 169 167 231 300 314 325 329 327 327 326 323 321 322 323 325 330 332 334 327 318 307 312 310 295 296 292 306
209 210 209 209 209 205 191 190 193 192 191 188 188 195 183 179 182 205 262 312 324 328 331 330 327 328 329 328 327 328 327 329 335 336 330 311 305 311 311 305 303 302 295
209 208 207 207 202 194 187 189 190 188 182 181 184 180 180 184 192 221 307 323 327 331 333 333 333 335 338 336 334 333 329 330 330 331 326 318 314 304 300 307 308 302 301
205 207 203 199 194 190 187 186 181 176 175 175 172 176 178 175 163 81 342 340 337 334 334 335 332 331 330 331 323 322 322 321 321 317 318 315 309 304 300 302 308 310 312
195 195 194 190 186 182 183 182 181 176 173 174 174 173 173 158 72 358 344 336 328 321 316 313 309 306 310 309 305 302 300 299 298 298 304 306 307 304 303 300 300 307 312
196 197 193 188 185 182 181 181 180 179 176 178 176 176 182 206 308 336 329 321 314 314 306 305 307 305 305 303 298 296 296 297 297 296 298 298 298 295 294 293 294 300 303
198 193 191 191 186 183 181 181 181 182 179 178 179 184 189 214 238 305 312 307 305 299 300 300 300 302 301 300 301 303 303 301 301 301 301 301 302 301 290 290 287 286 291
192 188 192 191 187 184 181 182 185 185 178 180 182 178 177 192 213 287 300 293 289 294 298 300 300 301 301 301 301 299 299 298 297 299 301 304 306 307 296 287 287 286 284
192 188 190 190 186 183 183 183 184 183 182 182 180 183 189 190 233 277 286 288 298 300 300 299 302 304 303 302 300 298 297 295 297 298 296 297 300 302 302 288 283 285 285
188 186 186 188 185 184 184 185 183 183 185 184 185 188 191 214 257 277 286 298 302 303 303 304 305 306 307 305 303 302 303 305 306 307 306 302 299 298 300 299 295 287 284
181 182 188 189 187 185 185 184 183 184 185 185 187 190 206 242 266 285 299 304 304 304 307 309 312 312 309 310 312 313 311 311 310 310 304 300 300 299 299 298 297 292 292
183 186 189 189 188 187 186 185 184 185 185 187 190 202 227 256 285 297 302 304 305 306 308 312 310 309 312 312 309 310 312 312 312 308 303 300 297 298 297 296 293 292 290
185 190 189 189 188 187 186 184 183 183 187 188 194 212 246 284 295 297 303 304 304 307 309 306 309 310 313 315 312 312 314 317 316 314 312 308 302 296 295 295 293 290 285
192 194 189 187 189 187 184 181 182 184 186 191 204 234 276 291 294 303 303 304 308 306 304 310 317 321 322 318 314 311 313 314 317 316 313 309 307 304 302 304 302 300 300
196 193 191 190 191 188 182 181 183 186 190 197 216 248 279 293 295 298 305 310 309 303 311 314 314 317 322 320 316 315 313 314 314 313 314 315 317 316 311 307 304 301 298
193 190 186 185 190 183 180 182 184 183 188 204 227 258 296 284 280 290 300 305 310 312 313 316 317 315 319 318 316 315 316 315 316 318 319 321 320 319 313 309 302 298 294
200 192 187 187 186 180 180 180 177 180 190 207 257 293 274 261 265 274 290 304 311 312 309 309 312 313 317 316 319 321 322 322 323 325 326 325 320 319 314 308 306 306 302
192 183 184 187 180 177 177 177 174 179 184 237 274 258 255 256 260 273 289 302 308 311 312 319 324 330 333 336 339 337 331 327 328 329 328 328 327 322 315 310 310 310 313
180 182 182 181 176 174 174 171 175 186 229 255 243 245 249 253 267 279 287 300 317 336 348 352 355 357 353 350 348 339 335 332 330 328 328 327 328 324 316 314 312 309 310
177 175 176 173 171 171 171 178 177 215 238 222 223 226 226 224 225 217 52 19 11 7 3 1 356 354 352 348 344 338 335 333 329 328 328 328 328 320 317 321 318 320 317
163 173 174 166 165 166 173 177 191 224 208 203 197 182 173 165 143 108 78 35 12 6 1 357 356 355 352 346 342 338 335 334 329 330 330 330 328 322 329 325 324 324 322
171 172 165 163 163 169 174 189 196 194 189 183 173 169 162 150 132 110 63 21 8 2 359 357 355 352 350 344 341 338 336 334 334 336 338 335 332 326 327 323 329 329 323
170 166 163 162 168 169 172 184 190 183 175 169 170 167 161 158 153 142 13 2 352 350 355 355 352 349 347 343 339 334 332 335 335 334 337 336 334 329 327 319 324 327 328
162 160 165 168 169 168 182 185 180 175 172 173 175 175 183 196 221 276 321 329 339 344 345 344 342 341 341 342 338 331 330 333 332 332 334 334 330 331 326 320 320 329 335
Height
1496 1499 1501 1504 1508 1511 1514 1518 1520 1523 1526 1529 1531 1537 1538 1541 1542 1544 1545 1546 1547 1547 1547 1546 1545 1544 1543 1541 1540 1539 1538 1537 1534 1530 1527 1525 1523 1522 1521 1519 1518 1516 1515
1492 1494 1496 1499 1503 1507 1509 1514 1518 1522 1524 1527 1529 1533 1536 1538 1541 1543 1544 1544 1544 1544 1544 1543 1542 1541 1540 1538 1537 1535 1534 1532 1530 1527 1524 1520 1520 1517 1516 1514 1511 1509 1508
1486 1489 1491 1495 1498 1502 1504 1509 1514 1518 1521 1524 1527 1529 1533 1537 1540 1541 1542 1542 1542 1542 1541 1540 1540 1539 1537 1535 1534 1532 1530 1528 1527 1526 1525 1520 1516 1513 1511 1509 1505 1504 1503
1479 1484 1487 1490 1493 1497 1502 1506 1511 1514 1518 1522 1525 1527 1530 1534 1537 1538 1539 1540 1540 1539 1538 1537 1537 1536 1534 1533 1531 1529 1528 1526 1524 1524 1523 1521 1517 1511 1501 1506 1504 1500 1496
1468 1474 1480 1485 1489 1495 1499 1504 1508 1513 1516 1520 1524 1526 1529 1531 1533 1535 1536 1536 1536 1536 1535 1535 1534 1533 1533 1531 1529 1528 1526 1524 1523 1520 1517 1515 1513 1512 1509 1493 1496 1495 1493
1461 1469 1475 1481 1486 1491 1497 1501 1504 1509 1513 1518 1522 1525 1527 1528 1530 1531 1532 1533 1533 1533 1533 1532 1532 1532 1531 1529 1527 1526 1524 1522 1519 1516 1514 1512 1509 1506 1503 1499 1491 1487 1482
1454 1460 1467 1473 1479 1484 1490 1497 1501 1505 1510 1514 1516 1520 1523 1526 1527 1527 1528 1529 1529 1530 1529 1529 1529 1528 1526 1524 1523 1521 1520 1517 1515 1513 1511 1509 1507 1504 1500 1495 1489 1484 1476
1448 1452 1459 1467 1473 1479 1485 1492 1497 1501 1506 1509 1512 1515 1518 1521 1522 1523 1524 1526 1527 1527 1526 1525 1524 1523 1522 1521 1518 1516 1514 1512 1510 1508 1505 1502 1500 1497 1494 1491 1488 1480 1475
1443 1448 1455 1462 1469 1475 1482 1488 1495 1500 1503 1507 1510 1513 1514 1516 1518 1519 1521 1523 1523 1523 1522 1520 1520 1518 1516 1514 1511 1510 1509 1506 1503 1501 1498 1496 1492 1490 1488 1485 1482 1479 1472
1440 1447 1452 1459 1467 1474 1481 1487 1493 1497 1501 1505 1507 1510 1513 1514 1515 1517 1517 1518 1518 1517 1516 1515 1513 1511 1510 1509 1506 1503 1501 1498 1497 1494 1490 1488 1486 1481 1478 1477 1474 1472 1469
1433 1439 1446 1455 1464 1472 1478 1483 1488 1493 1498 1501 1505 1507 1509 1511 1512 1513 1514 1514 1512 1511 1510 1508 1506 1504 1503 1501 1499 1496 1493 1491 1488 1486 1482 1479 1477 1474 1471 1468 1466 1464 1461
1431 1437 1444 1452 1460 1467 1473 1478 1484 1490 1495 1498 1501 1503 1506 1507 1508 1509 1509 1507 1507 1505 1504 1502 1499 1497 1495 1494 1491 1488 1486 1484 1480 1477 1475 1473 1470 1467 1465 1462 1459 1457 1454
1429 1435 1441 1448 1456 1462 1469 1474 1480 1486 1491 1495 1498 1500 1502 1503 1505 1505 1503 1502 1501 1500 1498 1497 1495 1492 1490 1488 1486 1483 1479 1477 1475 1473 1471 1467 1465 1462 1458 1455 1452 1449 1446
1423 1430 1438 1443 1450 1458 1464 1470 1475 1481 1486 1491 1494 1496 1499 1500 1500 1500 1499 1498 1497 1496 1494 1491 1490 1488 1486 1483 1479 1476 1474 1472 1469 1468 1466 1462 1459 1455 1450 1446 1443 1440 1437
1420 1424 1429 1436 1445 1452 1460 1467 1473 1478 1483 1486 1490 1493 1495 1496 1496 1495 1494 1493 1492 1491 1490 1488 1486 1484 1482 1479 1475 1472 1469 1467 1464 1461 1459 1456 1453 1448 1443 1438 1433 1431 1428
1412 1416 1424 1430 1438 1445 1453 1461 1468 1474 1479 1483 1486 1489 1491 1492 1492 1490 1489 1489 1488 1487 1486 1484 1482 1481 1479 1475 1472 1468 1465 1463 1460 1456 1453 1449 1445 1440 1434 1430 1426 1424 1420
1400 1406 1412 1421 1430 1439 1448 1456 1464 1470 1475 1479 1481 1484 1486 1487 1487 1485 1485 1485 1484 1483 1482 1480 1477 1477 1475 1471 1467 1463 1459 1455 1451 1447 1443 1439 1436 1430 1425 1421 1417 1414 1412
1395 1403 1409 1418 1426 1437 1445 1452 1459 1466 1471 1474 1477 1479 1480 1481 1481 1481 1480 1479 1479 1478 1477 1476 1475 1473 1470 1466 1462 1456 1451 1446 1444 1440 1436 1431 1428 1423 1417 1412 1407 1404 1402
1382 1392 1402 1410 1420 1431 1439 1447 1454 1461 1465 1469 1471 1473 1475 1476 1476 1475 1475 1475 1474 1473 1472 1471 1470 1467 1464 1460 1455 1451 1446 1442 1438 1434 1429 1425 1420 1415 1410 1404 1400 1395 1392
1382 1389 1397 1407 1419 1428 1437 1443 1449 1455 1459 1463 1466 1467 1470 1470 1470 1470 1470 1469 1468 1469 1469 1467 1465 1462 1459 1455 1450 1446 1441 1436 1432 1428 1422 1417 1412 1407 1403 1398 1395 1389 1386
1378 1387 1396 1405 1417 1427 1436 1442 1448 1452 1456 1459 1461 1463 1464 1465 1465 1465 1465 1465 1465 1465 1464 1464 1461 1459 1455 1451 1447 1443 1437 1433 1426 1422 1415 1410 1405 1400 1396 1393 1390 1385 1382
1372 1383 1392 1404 1414 1424 1432 1439 1444 1448 1453 1455 1457 1458 1459 1460 1461 1462 1461 1462 1462 1462 1460 1457 1455 1453 1450 1446 1442 1439 1436 1431 1424 1417 1410 1403 1398 1394 1391 1388 1386 1382 1378
1373 1382 1391 1403 1414 1423 1429 1435 1438 1443 1447 1451 1452 1454 1456 1458 1459 1460 1460 1461 1460 1457 1455 1453 1450 1446 1442 1439 1435 1432 1429 1425 1420 1413 1405 1399 1394 1390 1388 1385 1382 1379 1375
1373 1381 1391 1402 1411 1420 1425 1432 1435 1439 1444 1447 1449 1452 1454 1456 1456 1457 1458 1458 1456 1454 1452 1447 1443 1440 1438 1435 1429 1427 1422 1419 1414 1407 1400 1396 1392 1388 1386 1383 1380 1377 1373
1375 1383 1391 1401 1409 1414 1420 1426 1432 1436 1440 1443 1448 1450 1451 1453 1455 1455 1456 1454 1453 1452 1448 1443 1441 1437 1434 1432 1428 1424 1419 1415 1409 1403 1398 1393 1390 1386 1383 1381 1377 1374 1371
1378 1387 1395 1400 1406 1410 1418 1423 1428 1432 1436 1440 1444 1446 1449 1450 1452 1452 1451 1451 1451 1449 1446 1442 1438 1436 1432 1428 1423 1421 1416 1411 1406 1401 1396 1392 1388 1385 1382 1378 1376 1373 1370